This demonstration page uses our WeatherBlox Daily Observations layout. Learn more.

Left ArrowRight Arrow

41.12389, -100.76542

Hourly Observations for January 16, 2018

Temp ( °F °C ) Dew Point ( °F °C ) Humidity (%) Winds ( mph kmh ) Pressure ( in mb ) Visibility ( mi km ) Precip ( " mm )
12:53 am 00:53 Clear -1 -18.3 -11 -23.9 62 62 NW 12 19 30.90 1046 10 16 0.00 0.00
1:53 am 01:53 Clear -2 -18.9 -12 -24.4 62 62 NNW 13 20 30.89 1046 10 16 0.00 0.00
2:53 am 02:53 Clear -2 -18.9 -12 -24.4 62 62 NW 10 17 30.89 1046 10 16 0.00 0.00
3:53 am 03:53 Clear -4 -20 -13 -25 65 65 NW 7 11 30.90 1047 10 16 0.00 0.00
4:53 am 04:53 Clear -5 -20.6 -13 -25 68 68 NW 5 7 30.90 1046 10 16 0.00 0.00
5:53 am 05:53 Clear -5 -20.6 -13 -25 68 68 WNW 9 15 30.91 1047 10 16 0.00 0.00
6:53 am 06:53 Clear -4 -20 -13 -25 65 65 WNW 13 20 30.89 1046 10 16 0.00 0.00
7:53 am 07:53 Clear -5 -20.6 -13 -25 68 68 WNW 6 9 30.89 1046 10 16 0.00 0.00
8:53 am 08:53 Sunny -2 -18.9 -12 -24.4 62 62 WNW 8 13 30.88 1046 10 16 0.00 0.00
9:53 am 09:53 Sunny 1 -17.2 -11 -23.9 56 56 NW 5 7 30.88 1046 10 16 0.00 0.00
10:53 am 10:53 Sunny 4 -15.6 -8 -22.2 57 57 NW 3 6 30.89 1046 10 16 0.00 0.00
11:53 am 11:53 Sunny 9 -12.8 -5 -20.6 52 52 Calm 30.85 1045 10 16 0.00 0.00
12:53 pm 12:53 Sunny 12 -11.1 -2 -18.9 53 53 W 7 11 30.80 1043 10 16 0.00 0.00
1:53 pm 13:53 Sunny 13 -10.6 -1 -18.3 54 54 SW 9 15 30.76 1042 10 16 0.00 0.00
2:53 pm 14:53 Sunny 14 -10 -1 -18.3 51 51 S 8 13 30.74 1041 10 16 0.00 0.00
3:53 pm 15:53 Sunny 15 -9.4 -1 -18.3 49 49 SW 6 9 30.73 1041 10 16 0.00 0.00
4:53 pm 16:53 Sunny 16 -8.9 0 -17.8 49 49 SSW 3 6 30.70 1040 10 16 0.00 0.00
5:53 pm 17:53 Clear 13 -10.6 0 -17.8 56 56 SSE 5 7 30.69 1039 10 16 0.00 0.00
6:53 pm 18:53 Clear 11 -11.7 0 -17.8 61 61 S 6 9 30.67 1039 10 16 0.00 0.00
7:53 pm 19:53 Clear 10 -12.2 0 -17.8 63 63 S 7 11 30.66 1038 10 16 0.00 0.00
8:53 pm 20:53 Clear 11 -11.7 -1 -18.3 58 58 S 8 13 30.63 1037 10 16 0.00 0.00
9:53 pm 21:53 Clear 10 -12.2 -1 -18.3 61 61 Calm 30.61 1037 10 16 0.00 0.00
10:53 pm 22:53 Clear 9 -12.8 -1 -18.3 64 64 S 5 7 30.60 1036 10 16 0.00 0.00
11:53 pm 23:53 Clear 9 -12.8 -1 -18.3 64 64 S 6 9 30.58 1036 10 16 0.00 0.00

Powered by AerisWeather